Location: Neuvy Saint Sepulchre
(46.5953°N, 1.8122°E)
Time: 14:28:07
(UTC+02:00)

ISS - Pass Details

Date: 27 September 2022
Orbit: 414 x 417 km, 51.6° (Epoch: 01 October)

Event Time Altitude Azimuth Distance (km) Brightness Sun altitude
Rises 22:06:28 0° 296° (WNW) 2,364 1.5 -25.1°
Reaches altitude 10° 22:08:34 10° 296° (WNW) 1,498 0.1 -25.4°
Enters shadow 22:10:23 30° 297° (WNW) 785 -1.8 -25.7°
